Regional Weather Roundup
Issued by NWS

Home | Current Version | Previous Version | Text Only | Print | Product List | Glossary Off
Versions: 1 2 3 4 5 6 7 8 9 10 11 12 13 14 15 16 17 18 19 20 21 22 23 24 25 26 27 28 29 30 31 32 33 34 35 36 37 38 39 40 41 42 43 44 45 46 47 48 49 50

000
ASUS43 KIND 170209
RWRIN

WEATHER ROUNDUP FOR INDIANA
NATIONAL WEATHER SERVICE INDIANAPOLIS IN
1000 PM EDT TUE SEP 16 2014

NOTE: "FAIR" INDICATES FEW OR NO CLOUDS BELOW 12,000 FEET WITH NO
SIGNIFICANT WEATHER AND/OR OBSTRUCTIONS TO VISIBILITY.

* - STATION DOES NOT REPORT WEATHER SUCH AS PRECIPITATION OR FOG.

+ - STATION NOT QUALITY CONTROLLED BY THE NATIONAL WEATHER SERVICE.
    USE DATA WITH CAUTION...ESPECIALLY DEWPOINT AND RELATIVE
    HUMIDITY OBSERVATIONS.

INZ001>003-010>013-019-020-170300-
NORTHWEST INDIANA

CITY           SKY/WX    TMP DP  RH WIND       PRES   REMARKS
GARY /AIRPORT/ CLEAR     52  50  93 CALM      30.11R
KNOX *+        CLEAR     50  47  90 CALM      30.10S
LA PORTE +     CLEAR     48  47  94 CALM      30.11S
MICHIGAN CITY+ CLEAR     48  46  93 CALM      30.11S
MONTICELLO +   CLEAR     50  49  97 CALM      30.10S
RENSSELAER +   CLEAR     48  48 100 CALM      30.11S
VALPARAISO     CLEAR     50  47  89 CALM      30.11R

$$

LMZ046-743>745-170300-
SOUTHERN LAKE MICHIGAN

STATION/POSITION TIME  TEMP WIND        PRES
                       AIR  DIR/SP/G
                 (UTC) (F)  (DEG/KT/KT) (MB)
MICHIGAN CITY    0200   58   70/  7/  8   N/A

$$

INZ004-005-014>016-021>024-170300-
NORTH CENTRAL INDIANA

CITY           SKY/WX    TMP DP  RH WIND       PRES   REMARKS
GOSHEN         CLEAR     52  48  86 CALM      30.11R
LOGANSPORT +   CLEAR     50  46  87 CALM      30.11S
PERU/GRISSOM   CLEAR     53  53  99 CALM      30.10S
ROCHESTER +    CLEAR     52  50  93 CALM      30.11R
SOUTH BEND     CLEAR     52  45  77 CALM      30.12R
WARSAW +       CLEAR     52  48  87 CALM      30.11S

$$

INZ006>009-017-018-025>027-170300-
NORTHEAST INDIANA

CITY           SKY/WX    TMP DP  RH WIND       PRES   REMARKS
ANGOLA *+      CLEAR     54  46  76 N3        30.11S
AUBURN +       CLEAR     50  46  87 CALM      30.11R
FORT WAYNE     CLEAR     51  48  89 CALM      30.11S
HUNTINGTON +   CLEAR     50  49  95 CALM      30.10S

$$

INZ028-029-035-036-043>045-051>053-170300-
WEST CENTRAL INDIANA

CITY           SKY/WX    TMP DP  RH WIND       PRES   REMARKS
GREENCASTLE +  CLEAR     52  50  93 CALM      30.11S
LAFAYETTE      CLEAR     51  49  92 MISG      30.10S
TERRE HAUTE    CLEAR     51  48  89 CALM      30.11R

$$

INZ030>032-037>040-046>048-054>057-064-065-170300-
CENTRAL INDIANA

CITY           SKY/WX    TMP DP  RH WIND       PRES   REMARKS
CP ATTERBURY + FOG       50  48  93 CALM      30.12S VSB 1/4
FRANKFORT +    CLEAR    N/A N/A N/A CALM      30.12R
GREENWOOD *+   CLEAR     54  50  87 CALM      30.12
INDIANAPOLIS   CLEAR     54  49  83 S6        30.11R
-EAGLE CREEK   CLEAR     53  49  86 CALM      30.11R
KOKOMO *+      CLEAR     52  45  76 CALM      30.11R
MARION +       CLEAR     50  47  91 CALM      30.11S
MT COMFORT *+  CLEAR     48 N/A N/A CALM      30.12R
SHELBYVILLE    CLEAR     52  48  86 CALM      30.11R
ZIONSVILLE +   CLEAR     51  47  87 CALM      30.11S

$$

INZ033-034-041-042-049-050-058-059-170300-
EAST CENTRAL INDIANA

CITY           SKY/WX    TMP DP  RH WIND       PRES   REMARKS
MUNCIE         CLEAR     51  47  86 CALM      30.11S

$$

INZ060-061-067>069-081>083-085>088-170300-
SOUTHWEST INDIANA

CITY           SKY/WX    TMP DP  RH WIND       PRES   REMARKS
EVANSVILLE     PTCLDY    56  50  80 N3        30.11S
WASHINGTON +   CLEAR     49  49 100 CALM      30.11S

$$

INZ062-063-066-070>080-084-089>092-170300-
SOUTH CENTRAL AND SOUTHEAST INDIANA

CITY           SKY/WX    TMP DP  RH WIND       PRES   REMARKS
BEDFORD +      CLEAR     50  48  93 CALM      30.11
BLOOMINGTON    CLEAR     51  49  92 SE3       30.11S
NORTH VERNON + MOCLDY    55  55 100 SE3       30.13
SEYMOUR +      CLEAR     50  48  93 CALM      30.11  FOG

$$




USA.gov is the U.S. government's official web portal to all federal, state and local government web resources and services.